Regional Weather Roundup
Issued by NWS

Home | Current Version | Previous Version | Graphics & Text | Print | Product List | Glossary On
Versions: 1 2 3 4 5 6 7 8 9 10 11 12 13 14 15 16 17 18 19 20 21 22 23 24 25 26 27 28 29 30 31 32 33 34 35 36 37 38 39 40 41 42 43 44 45 46 47 48 49 50
000
ASUS43 KDMX 080806
RWRIA

WEATHER ROUNDUP FOR IOWA
NATIONAL WEATHER SERVICE DES MOINES IA
200 AM CST THU DEC 08 2016

NOTE: "FAIR" INDICATES FEW OR NO CLOUDS BELOW 12,000 FEET WITH NO
SIGNIFICANT WEATHER AND/OR OBSTRUCTIONS TO VISIBILITY.

* - THESE STATIONS ARE NOT NWS STATIONS...THUS NOT UNDER NWS
QUALITY CONTROL.  THEY ALSO DO NOT REPORT WEATHER SUCH
AS PRECIPITATION OR FOG.

IAZ001>003-012>014-020>022-031>034-043>046-080900-
   NORTHWEST IOWA

CITY           SKY/WX    TMP DP  RH WIND       PRES   REMARKS
CARROLL *      CLEAR     12   5  73 NW26G32   30.38R WCI  -8
CHEROKEE *     CLEAR     10   3  75 NW14G23   30.39R WCI  -7
DENISON *      CLOUDY    10   5  79 NW18G29   30.39S WCI  -8
LE MARS *      PTCLDY    10   3  72 NW18G26   30.44R WCI  -8
ORANGE CITY *  CLEAR      9   3  78 NW24G31   30.37S WCI -12
SHELDON *      CLOUDY     9   3  78 NW21G26   30.34S WCI -11
SIOUX CITY     PTCLDY    14   3  61 NW21G32   30.43R WCI  -4
SPENCER        CLEAR      9   3  77 W29G36    30.33S WCI -13
STORM LAKE *   PTCLDY     9   3  78 NW21G31   30.34S WCI -11
$$

IAZ055>058-069>071-079>083-090>094-080900-
   SOUTHWEST IOWA

CITY           SKY/WX    TMP DP  RH WIND       PRES   REMARKS
ATLANTIC *     CLOUDY    14   7  73 NW16G23   30.42S WCI  -2
AUDUBON *      PTCLDY    12   5  73 NW9G18    30.40R WCI   0
CLARINDA *     CLEAR     16   7  67 NW9G15    30.48S WCI   4
COUNCIL BLFS * CLOUDY    14   5  67 NW16G23   30.46R WCI  -2
CRESTON *      PTCLDY    14   7  73 W17G24    30.40S WCI  -3
HARLAN  *      FLURRIES  14   7  73 NW23G32   30.45R WCI  -5
LAMONI         CLEAR     15   7  70 W21G29    30.39R WCI  -2
RED OAK *      PTCLDY    14   7  73 NW14G20   30.46S WCI  -1
SHENANDOAH *   CLEAR     16   7  67 NW12G18   30.49R WCI   3
$$

IAZ047>049-059>061-072>074-084-080900-
   CENTRAL IOWA

CITY           SKY/WX    TMP DP  RH WIND       PRES   REMARKS
AMES           CLOUDY    15   8  73 NW21G29   30.35S WCI  -2
ANKENY *       CLOUDY    16   7  67 W15G25    30.38R WCI   1
BOONE *        FLURRIES  14   5  67 NW21G29   30.32S WCI  -4
CHARITON *     CLOUDY    16   9  73 NW20G25   30.36S WCI  -1
DES MOINES     FLURRIES  17   8  67 NW23G31   30.37R WCI  -1
GRINNELL*      CLOUDY    16   9  74 W20G31    30.32R WCI  -1
KNOXVILLE *    CLOUDY    18   7  62 NW21G29   30.35R WCI   1
MARSHALLTOWN   MOCLDY    14   6  70 W24G35    30.32R WCI  -5
NEWTON *       CLOUDY    16   9  73 W20G28    30.33R WCI  -1
PELLA *        PTCLDY    17   9  70 W22       30.36S WCI   0
PERRY *          N/A     14   8  77 W22G29    30.38R WCI  -4
$$

IAZ004>006-015-016-023>025-035-036-080900-
   NORTH CENTRAL IOWA

CITY           SKY/WX    TMP DP  RH WIND       PRES   REMARKS
ALGONA *       CLEAR     10   5  79 NW21G28   30.29S WCI  -9
CLARION *      PTCLDY    10   3  72 W21G29    30.31R WCI  -9
ESTHERVILLE    PTCLDY     9   4  80 W26G36    30.29R WCI -13
FORT DODGE *   CLEAR     10   1  67 W13G20    30.34S WCI  -5
MASON CITY     CLEAR     10   4  76 W20G31    30.27R WCI  -9
FOREST CITY *    N/A     10   5  79 W18G25    30.26R WCI  -8
WEBSTER CITY * PTCLDY    12   5  73 NW23      30.31R WCI  -7
IOWA FALLS *     N/A     13   7  76 W17G30    30.31R WCI  -4
$$

IAZ007>011-017>019-026>030-037>042-050>054-066-080900-
   NORTHEAST IOWA

CITY           SKY/WX    TMP DP  RH WIND       PRES   REMARKS
CEDAR RAPIDS   PTCLDY    15   9  76 NW26G36   30.28R WCI  -4
CHARLES CITY * MOCLDY    12   5  73 W18G25    30.24R WCI  -5
DECORAH *      CLOUDY    12   5  73 W9G15     30.18R WCI   0
DUBUQUE        CLOUDY    16   9  74 W28G35    30.20R WCI  -4
MONTICELLO *   FLURRIES  16   9  73 W16       30.24R WCI   0
OELWEIN *      MOCLDY    12   7  79 W22G32    30.23S WCI  -7
WATERLOO       MOCLDY    13   4  67 W14G23    30.28R WCI  -2
$$

IAZ064-065-067-068-078-080900-
   EAST CENTRAL IOWA

CITY           SKY/WX    TMP DP  RH WIND       PRES   REMARKS
DAVENPORT      CLOUDY    19  11  70 W23G30    30.26R WCI   2
IOWA CITY      MOCLDY    19   9  65 NW17G29   30.31R WCI   4
MUSCATINE *    CLOUDY    19  10  68 W21       30.32R WCI   3
QUAD CITIES    CLOUDY    20  10  65 W20G32    30.27R WCI   4
$$

IAZ062-063-075>077-085>089-095>099-080900-
   SOUTHEAST IOWA

CITY           SKY/WX    TMP DP  RH WIND       PRES   REMARKS
BURLINGTON     CLEAR     19  11  70 W9        30.32S WCI   8
FAIRFIELD *    PTCLDY    18   9  68 NW21G28   30.33R WCI   1
FORT MADISON * CLEAR     19  10  68 W16       30.34S WCI   5
KEOKUK *       CLEAR     19  12  73 W13G18    30.35R WCI   7
OSKALOOSA *      N/A     16  10  75 NW21G28   30.35R WCI  -1
CENTERVILLE *    N/A     16   9  73 W15       30.38R WCI   1
OTTUMWA        MOCLDY    17   7  64 NW14G29   30.33F WCI   3
WASHINGTON *   CLOUDY    18  10  73 W22       30.33R WCI   0
$$

ABBREVIATIONS USED IN REMARKS
   TC - TEMPERATURES IN CELSIUS
  WCI - WIND CHILL INDEX
   HX - HEAT INDEX
  VSB - VISIBILITY
$$




USA.gov is the U.S. government's official web portal to all federal, state and local government web resources and services.